Weather in Berlevag

Norway     70°51′35″N   29°05′26″E
В апреле 2022 года жителям России запретили посещать сайт meteo.paraplan.net по решению Генеральной прокуратуры. Аудитория сайта уменьшилась в 10 раз. Владельцы сайта не видят смысла в поддержке погодного сервера в таких условиях. Сайт будет закрыт в октябре.
temp.,
°C
wind,
m/s
gust,
m/s
humid.,
%
clouds,
%
prec.,
mm/h
press.,
hPa
HPBL,
m
25 september, sun
sun2523:00+6ssw7138633 0.0 1015297
02:00+6s598897 0.0 1015171
05:00+5s598892 0.0 1015181
08:00+5s6108376 0.0 1014241
11:00+8s611675 0.0 1013478
14:00+9s69645 0.0 1012479
17:00+7s58721 0.0 1012208
20:00+5sse512800 0.0 1012268
26 september, mon
mon2623:00+5s59880 0.0 1012185
02:00+4sse45894 0.0 1012122
05:00+3sse448932 0.0 101396
08:00+4sse458499 0.0 1013154
11:00+7s486251 0.0 1013401
14:00+8s476575 0.0 1013353
17:00+7s497619 0.0 1014312
20:00+5s588816 0.0 1015167
27 september, tue
tue2723:00+4s589177 0.0 1016144
02:00+5s589318 0.0 1016157
05:00+5ssw58938 0.0 1016157
08:00+6s599020 0.0 1017282
11:00+9ssw697424 0.0 1017433
14:00+10s35738 0.0 1017372
17:00+8s34865 0.0 101744
20:00+6s46906 0.0 1018111
28 september, wed
wed2823:00+6s45845 0.0 101865
02:00+5ssw458846 0.0 101890
05:00+6ssw478595 0.0 1017141
08:00+6ssw51087100 0.0 1017295
11:00+8ssw6108024 0.0 1018494
14:00+8ssw797933 0.0 1017585
17:00+7ssw588942 0.0 1018286
20:00+6ssw489388 0.0 1018279
29 september, thu
thu2923:00+7ssw598992 0.0 1018346
02:00+6ssw579243 0.0 1018201
05:00+6ssw589293 0.0 1018279
08:00+7ssw6118099 0.1 1019398
11:00+8ssw7116555 0.0 1019579
14:00+9ssw7106114 0.0 1019791
17:00+7ssw597129 0.0 1019188
20:00+5s59838 0.0 1020156